Regional Weather Roundup
Issued by NWS

Home | Current Version | Previous Version | Text Only | Print | Product List | Glossary Off
Versions: 1 2 3 4 5 6 7 8 9 10 11 12 13 14 15 16 17 18 19 20 21 22 23 24 25 26 27 28 29 30 31 32 33 34 35 36 37 38 39 40 41 42 43 44 45 46 47 48 49 50

385
ASUS45 KCYS 212110
RWRWY

WYOMING REGIONAL WEATHER ROUNDUP
NATIONAL WEATHER SERVICE CHEYENNE WY
200 PM MST TUE FEB 21 2017

NOTE:  "FAIR" INDICATES FEW OR NO CLOUDS BELOW 12,000 FEET
WITH NO SIGNIFICANT WEATHER AND/OR OBSTRUCTIONS TO VISIBILITY.

WYZ001-212200-
YELLOWSTONE NATIONAL PARK

CITY           SKY/WX    TMP DP  RH WIND       PRES   REMARKS
LK YELLOWSTONE   N/A     32  24  72 W9G28     29.85F WCI  24
W YELLOWSTONE  NOT AVBL

$$
WYZ002>013-054>058-071-098>099-212200-
NORTHERN WYOMING

CITY           SKY/WX    TMP DP  RH WIND       PRES   REMARKS
JACKSON        LGT SNOW  34  34 100 S18       29.88S VSB 1   WCI  23
CODY           LGT RAIN  42  34  73 VRB5G18   29.80F
GREYBULL       PTSUNNY   53  36  52 NW8       29.75F
WORLAND        FAIR      55  36  48 W17       29.74F
SHERIDAN       FAIR      60  31  33 W17G26    29.71F
BUFFALO        FAIR      61  25  25 SW24      29.73F
GILLETTE       FAIR      64  24  21 W29G41    29.70F
HULETT         FAIR      63  30  29 W18G25    29.71S
NEWCASTLE      FAIR      64  25  22 W29G38    29.77F

$$
WYZ014>020-022>026-101>103-212200-
CENTRAL WYOMING

CITY           SKY/WX    TMP DP  RH WIND       PRES   REMARKS
BIG PINEY      CLOUDY    38  30  73 W13G29    29.94F WCI  30
PINEDALE       MOCLDY    37  32  81 W7        29.93F WCI  32
DUBOIS         SNOW      32  32 100 NW12      29.82F VSB 1/2 WCI  23
LANDER         CLOUDY    52  28  39 W17G24    29.83F
RIVERTON       FAIR      52  30  43 SW24G33   29.82F
CASPER         FAIR      60  26  27 SW46G58   29.84F
DOUGLAS        FAIR      63  27  25 SW30G46   29.86F

$$
WYZ021-027>030-104>119-212200-
SOUTHERN WYOMING

CITY           SKY/WX    TMP DP  RH WIND       PRES   REMARKS
EVANSTON       FAIR      42  29  59 SW30G37   29.97F
KEMMERER         N/A     41  30  65 SW22G29   29.96F
FORT BRIDGER   FAIR      46  29  51 SW21      30.00F
ROCK SPRINGS   FAIR      52  26  36 SW20G28   29.96F
DIXON            N/A     53  32  43 SW28G38   30.09F
RAWLINS        FAIR      52  31  44 SW35G43   30.00F
SARATOGA       FAIR      54  27  35 SW33      30.03F
LARAMIE        FAIR      53  23  31 SW26G37   30.03F
CHEYENNE       FAIR      61  17  18 W26G40    30.01F
TORRINGTON     FAIR      70  14  11 W36G49    29.84F
PINE BLUFFS    FAIR      66  14  13 MISG      29.94F

$$




USA.gov is the U.S. government's official web portal to all federal, state and local government web resources and services.